Main page
METAR-TAF:

METAR-TAF

Airports :

Moundou Airport

Moundou, Chad

latitude: 08-37N, longitude: 016-04E, elevation: 428 m

Current weather observation

The report was made 11 hours and 13 minutes ago, at 07:00 UTC
Calm wind
Temperature 27°C
Humidity 79%
Pressure 1013 hPa
Visibility 10 km or more
no clouds below 1500 m and no cumulonimbus

METAR: FTTD 250700Z 00000KT CAVOK 27/23 Q1013

Time: 19:13 (18:13 UTC)


TAF: missing

Weather observations and forecasts of more than 4000 airports (METAR and TAF reports).

The available stations are represented by yellow and red dots on the map.

Hover mouse over dot to see the name of the station.

Then click to see weather observations and forecasts.

To change the map : click on the green buttons with a black cross to zoom in, on the green button with a dash to zoom out, or on the green arrows for adjacent maps.


METAR-TAF: